Theta_e
303 305 307 307 307 308 309 308 307 307 307 307 307 306 306 306 306 307 308 309 309 309 309 309 310 310 313 315 312 312 312 312 314 315 318 317 317 316 317 316 314 313 314 315 315 318 318
303 304 307 307 307 307 309 308 308 308 308 307 307 306 306 306 306 307 307 308 308 308 309 310 310 310 313 312 311 312 313 313 313 314 315 317 317 317 317 317 314 314 315 314 314 317 317
303 303 305 307 307 307 308 309 308 308 308 307 306 306 306 306 306 307 307 307 308 309 309 309 310 310 315 311 311 312 312 313 313 313 314 316 317 317 317 316 316 316 314 314 313 314 316
303 304 304 306 307 307 307 309 309 309 308 307 307 307 307 307 306 307 307 307 308 309 309 310 310 310 315 311 311 312 311 312 312 313 315 315 316 316 316 316 315 315 313 315 313 313 314
303 304 304 304 306 307 307 308 309 309 309 308 307 307 308 308 307 307 307 308 308 309 309 310 311 312 313 312 311 311 312 312 312 314 315 315 315 316 316 316 316 314 315 315 313 312 314
303 304 304 304 305 307 307 307 309 309 309 309 308 308 308 308 308 308 308 309 309 309 309 312 312 313 312 311 310 312 312 312 313 314 315 316 316 316 314 314 316 314 313 313 313 314 314
303 303 304 304 304 306 307 307 308 309 309 309 309 308 308 309 309 309 309 310 313 314 312 310 310 311 312 310 311 312 311 313 313 314 314 315 316 313 313 314 314 314 313 315 314 314 314
303 303 304 304 304 305 306 307 307 308 309 309 309 309 308 308 309 309 309 309 308 309 312 312 309 310 312 310 312 312 311 313 314 314 314 314 313 313 314 314 313 313 313 313 314 314 313
303 303 303 304 304 304 305 306 307 307 307 308 309 309 309 308 309 309 309 307 308 309 314 314 310 309 310 310 312 312 311 312 314 313 313 313 313 313 314 314 313 312 313 313 314 313 313
303 303 303 304 304 305 305 305 306 306 306 306 306 307 308 309 310 309 310 309 308 309 317 314 312 313 311 311 313 311 310 311 314 313 313 314 313 314 314 313 312 314 313 314 314 313 315
303 303 303 303 304 305 305 305 305 305 305 305 305 304 305 307 308 309 309 309 309 311 323 313 312 309 311 312 311 313 311 312 313 313 313 313 312 313 314 312 312 313 313 313 313 312 312
303 303 303 303 303 304 305 305 305 305 304 304 304 304 303 305 307 308 309 310 309 323 320 313 311 312 312 313 312 312 312 312 312 313 313 313 311 313 313 312 312 312 313 314 313 313 315
304 304 304 303 303 303 304 305 305 305 305 304 304 304 303 303 306 307 309 309 323 324 312 312 312 312 311 313 312 312 312 312 310 310 313 312 312 311 312 311 313 312 313 316 313 316 315
305 305 304 304 303 303 304 304 304 305 305 304 304 304 304 303 305 307 309 315 317 312 311 311 311 311 312 310 312 311 311 311 310 309 308 310 310 310 309 312 312 311 313 312 314 312 311
305 305 305 305 304 303 303 304 304 305 305 305 304 304 304 304 305 307 313 319 318 312 310 311 311 312 312 311 309 310 309 311 310 309 308 309 306 309 310 310 311 311 312 311 312 312 311
311 306 305 306 305 304 303 303 304 304 304 304 304 304 305 306 308 308 314 317 310 309 310 310 309 310 309 309 309 307 308 310 311 309 308 309 307 310 310 309 311 311 310 311 311 314 313
311 306 308 306 306 305 303 303 303 304 304 304 303 304 308 307 309 310 315 316 309 308 310 310 310 309 308 309 309 308 308 310 310 309 308 308 307 307 309 310 309 310 311 310 310 310 311
309 308 314 307 307 305 305 304 303 303 304 303 303 309 307 308 312 312 312 310 307 309 309 310 308 309 309 309 308 307 308 308 309 309 309 307 306 305 306 307 308 309 309 308 308 309 307
318 315 309 307 307 307 306 305 304 303 303 303 304 306 305 305 310 310 310 308 308 309 309 310 310 309 308 308 307 307 308 308 308 309 308 307 305 303 306 307 306 307 308 308 307 307 307
320 316 307 307 307 307 306 306 305 303 303 302 303 309 308 306 309 308 308 309 309 307 308 308 308 307 308 308 307 307 308 308 307 308 307 306 305 304 304 304 305 305 305 305 304 306 306
315 307 307 307 307 307 307 306 305 304 303 301 303 307 307 310 311 310 309 310 309 308 307 307 307 307 307 307 305 306 307 306 307 308 307 306 306 304 304 305 305 305 305 305 303 304 304
315 310 308 307 308 310 309 307 305 304 302 301 306 305 307 306 306 307 307 307 309 308 308 307 307 306 305 306 305 305 305 304 303 306 306 306 306 306 304 305 304 304 304 304 304 305 305
312 309 308 309 309 307 305 305 305 304 302 301 302 301 302 304 305 305 305 307 307 306 306 307 306 305 305 304 304 304 305 305 305 303 304 305 306 305 305 304 304 304 305 306 306 305 306
309 310 311 310 307 307 306 304 303 303 302 301 301 302 306 304 303 304 304 304 304 304 304 304 303 302 303 303 303 303 303 303 303 303 303 303 302 302 303 303 304 304 305 306 305 306 306
311 310 309 308 307 306 305 304 305 304 301 301 301 301 304 304 303 303 303 302 302 302 303 302 303 303 302 303 304 305 305 305 304 304 303 304 303 303 304 303 304 305 305 307 307 307 306
310 309 308 307 307 306 305 305 306 308 308 307 305 301 300 305 305 303 305 306 307 306 306 306 303 306 304 305 306 307 308 309 309 305 304 304 304 303 303 305 307 307 307 307 307 305 307
309 308 307 307 306 306 306 306 307 307 307 307 307 307 307 307 308 308 307 307 306 304 306 307 307 305 305 304 306 307 308 308 310 310 305 305 304 303 303 304 305 305 306 307 306 305 305
308 307 307 307 307 307 307 307 307 307 308 307 307 307 307 307 307 307 307 307 307 307 307 307 306 307 306 306 308 309 308 309 307 307 306 305 305 304 303 304 303 306 305 306 304 304 304
308 307 307 307 307 307 307 308 308 308 308 307 306 307 306 305 306 306 306 306 306 306 305 305 306 305 306 307 306 305 308 306 306 307 305 306 304 304 304 305 305 303 303 300 299 300 301
Wind_Speed
8 9 10 12 15 15 13 13 13 13 12 12 10 9 9 8 7 8 9 11 13 14 16 14 14 15 12 6 11 14 19 17 14 14 11 12 13 14 6 7 13 9 9 20 19 5 16
7 9 9 11 13 14 13 12 12 12 11 10 11 11 11 9 8 8 9 10 12 13 14 14 14 12 9 9 13 14 17 19 15 12 11 11 9 14 12 16 8 13 19 14 20 10 12
5 7 9 10 12 14 14 12 11 11 11 11 11 11 10 9 8 8 9 10 11 12 13 12 14 10 7 8 14 15 16 16 15 16 13 10 10 8 13 11 8 10 12 9 14 12 9
5 7 8 9 10 12 14 12 10 11 12 11 11 11 10 10 9 10 10 9 9 10 12 10 13 7 6 14 17 14 15 15 12 10 12 12 9 12 7 11 13 5 8 10 12 11 12
5 6 7 8 9 9 12 13 10 11 12 11 11 11 11 11 12 12 12 10 9 9 12 9 8 7 5 10 17 14 15 17 16 8 12 8 7 5 8 3 5 5 4 12 3 11 7
6 5 7 7 8 9 10 12 11 9 11 12 12 12 12 12 12 13 13 12 7 9 10 5 8 5 4 14 18 14 15 14 15 15 9 6 7 3 5 6 7 9 8 9 5 6 2
7 7 6 7 8 9 10 11 11 9 9 11 13 13 13 13 12 14 12 6 6 2 3 3 6 6 11 17 8 11 20 16 11 9 5 4 4 7 9 7 8 9 8 5 7 4 3
8 8 8 8 8 8 9 9 11 10 10 10 11 13 14 14 10 13 11 6 5 4 7 8 8 9 10 13 8 11 21 9 7 6 12 6 7 8 9 9 9 7 12 11 2 7 5
9 9 9 9 9 8 8 8 9 10 10 11 11 13 13 14 9 13 11 9 6 6 4 4 5 5 7 9 7 9 18 11 4 7 8 5 6 9 7 6 13 8 7 7 9 10 8
11 10 10 10 9 8 8 9 9 10 11 11 13 12 13 13 7 13 9 11 7 5 2 3 2 2 5 7 3 9 11 5 4 7 6 2 7 9 10 9 9 3 7 8 9 9 4
13 12 11 10 10 10 10 9 9 9 11 12 13 14 12 12 10 9 11 11 7 1 2 0 2 5 7 2 9 2 10 2 5 7 4 3 5 6 9 6 6 6 8 8 6 7 7
15 13 12 11 11 11 10 11 11 10 11 12 13 13 12 11 10 10 12 11 3 2 4 1 1 2 5 6 2 7 4 4 3 4 5 6 3 2 4 11 8 10 8 8 5 2 2
15 14 12 13 12 11 11 11 11 12 12 12 13 13 13 12 9 10 11 6 3 2 1 1 2 3 5 3 4 3 4 2 3 6 5 7 2 3 2 8 1 11 8 4 4 3 2
16 14 12 12 12 13 12 12 13 13 13 13 13 14 13 12 8 7 8 1 2 0 2 2 2 6 3 3 1 4 4 2 3 5 5 4 6 4 5 3 4 6 4 3 3 3 5
17 17 12 12 11 12 13 12 13 13 13 14 15 14 13 10 8 4 3 1 4 2 2 5 6 3 3 4 3 3 5 2 4 5 3 6 5 2 2 2 4 7 5 3 4 6 2
21 18 12 14 11 13 12 13 12 12 12 13 14 14 11 5 1 1 1 4 2 2 2 2 3 1 4 7 2 7 4 4 3 3 3 1 5 2 1 2 2 2 4 3 3 5 4
20 20 18 17 14 12 11 11 12 11 10 11 12 7 4 2 0 2 2 4 2 2 2 2 4 4 5 1 3 4 4 3 1 4 2 2 3 5 2 4 1 2 1 3 1 2 2
22 23 20 17 13 11 11 11 11 9 9 8 5 3 3 1 0 3 2 1 2 2 3 2 2 3 4 4 4 5 3 5 4 2 4 2 3 4 9 3 4 1 3 3 1 5 3
25 23 21 17 12 12 12 12 11 9 7 5 2 6 4 4 2 3 3 2 3 2 3 2 3 3 4 3 4 6 4 3 1 2 3 1 3 5 3 2 3 3 4 5 3 2 5
23 21 19 16 15 14 13 12 11 10 8 5 3 2 1 4 4 3 4 4 2 2 3 3 4 1 2 4 7 5 4 1 2 4 2 2 4 6 6 9 6 9 8 7 5 3 6
20 20 19 18 16 14 12 13 13 11 7 6 5 2 2 1 5 5 1 3 3 3 4 4 3 6 4 4 6 6 6 5 5 6 4 3 5 6 12 10 10 15 18 16 9 16 8
20 19 17 20 18 18 17 16 16 12 5 9 3 2 1 4 2 4 3 2 4 4 1 4 4 9 6 6 7 11 9 8 7 5 4 6 4 4 10 11 13 19 17 13 14 17 15
21 19 22 20 18 14 13 13 13 13 9 8 8 6 1 2 2 3 1 2 3 6 6 4 4 6 7 7 9 14 17 19 16 11 11 5 4 3 10 6 13 15 10 4 3 7 6
21 22 18 17 13 11 11 9 9 7 6 10 5 3 2 3 3 2 3 4 4 6 5 12 16 7 6 18 21 20 26 27 24 23 20 10 9 4 8 6 5 8 8 5 7 10 8
21 17 16 15 12 11 9 7 5 4 3 4 6 7 4 3 2 4 2 4 9 11 12 13 14 12 13 10 4 5 4 3 9 3 7 7 5 4 3 5 8 13 9 4 2 5 12
19 18 16 14 12 10 10 10 7 6 5 4 2 5 5 1 1 1 3 7 5 3 5 4 5 14 10 3 3 4 4 3 4 2 4 1 3 4 2 5 4 4 3 2 2 5 8
19 17 16 14 13 12 12 11 8 6 4 3 5 4 3 3 6 8 4 4 3 4 4 12 5 5 2 3 4 4 6 7 4 5 4 3 2 6 9 6 6 7 4 2 2 5 22
22 19 17 16 16 14 13 11 9 9 8 7 9 10 10 6 19 21 20 20 17 14 5 7 8 5 1 2 3 3 3 2 2 5 5 4 4 4 4 4 7 14 9 4 16 30 28
22 21 19 16 15 14 12 12 12 13 13 12 14 15 15 18 13 26 27 25 23 25 15 5 5 3 2 3 2 3 3 4 7 8 7 7 4 6 4 6 21 26 22 27 33 28 33
Wind_Direction
16 33 28 32 25 31 30 30 29 25 19 11 2 350 338 330 318 317 329 338 350 352 353 356 355 1 16 352 348 338 335 343 358 335 340 334 340 340 343 288 302 295 271 270 266 237 274
13 12 25 27 29 27 30 29 26 25 17 10 360 351 341 331 320 317 321 328 339 346 346 356 353 349 357 18 333 333 345 344 334 332 329 338 341 327 298 297 282 316 312 268 271 215 259
9 6 15 17 24 21 22 27 22 21 20 10 6 360 351 345 336 325 322 325 333 343 340 343 356 347 330 343 358 354 339 336 329 333 317 316 306 309 305 305 318 291 290 273 255 256 244
356 357 3 12 18 20 18 17 20 18 18 16 12 5 1 351 345 334 326 318 327 342 351 336 352 343 296 347 357 342 338 343 326 322 306 314 316 300 259 282 311 258 260 264 223 215 235
328 344 352 356 0 17 15 13 10 16 21 13 11 6 358 354 347 342 334 323 299 314 349 341 2 331 308 339 339 349 357 332 348 328 305 301 305 256 314 53 290 205 304 267 155 194 207
300 323 335 341 349 355 9 10 8 4 14 14 9 1 357 352 351 346 338 330 314 295 322 343 2 330 295 332 328 343 343 346 324 329 304 256 226 258 2 4 354 335 333 333 37 29 288
288 305 322 329 337 345 351 -0 6 360 356 5 8 1 354 352 351 354 354 355 350 337 356 291 298 279 303 329 349 353 335 337 334 357 346 302 17 8 352 324 310 305 298 43 14 12 279
283 297 309 318 326 331 342 347 352 358 348 346 351 355 356 351 349 2 6 34 20 316 317 285 296 301 320 323 311 339 345 3 333 346 351 11 29 350 312 303 323 315 12 7 28 347 308
277 283 295 304 313 322 326 333 340 347 349 341 342 341 347 352 351 359 16 19 354 335 262 243 283 285 312 322 315 318 349 343 327 342 351 13 356 327 312 10 347 59 25 348 315 306 261
265 275 283 292 298 305 314 321 328 334 338 344 340 342 340 348 357 351 358 354 346 347 286 151 197 259 335 313 273 314 347 358 317 346 340 294 359 347 328 16 356 353 5 329 326 334 357
262 266 273 280 289 299 306 309 314 321 327 332 336 339 340 346 341 348 335 339 336 12 47 198 132 313 324 312 314 311 344 348 327 325 312 343 351 343 330 359 334 293 332 286 293 304 320
263 267 276 284 291 296 301 305 309 315 323 327 331 334 337 336 335 335 335 333 326 17 269 40 294 313 333 197 251 307 286 301 272 286 229 249 126 266 314 304 273 283 292 275 223 264 25
257 269 278 286 288 292 298 304 305 309 315 322 325 327 330 330 325 330 333 341 3 146 154 51 325 352 335 290 312 351 309 43 33 358 340 317 138 148 287 319 296 351 343 356 355 2 219
255 256 265 277 287 293 295 300 303 306 312 317 321 320 321 321 321 326 334 356 257 287 2 123 250 287 231 17 182 294 272 28 108 343 298 357 331 21 353 52 298 298 348 88 314 354 286
245 251 253 264 275 285 293 298 300 307 311 315 317 314 309 316 309 320 30 323 239 20 313 347 294 271 176 174 253 296 291 94 67 22 5 356 302 161 73 356 6 323 40 337 294 273 293
239 247 251 269 281 284 291 292 299 305 314 317 318 312 303 318 327 112 85 248 286 336 317 239 276 156 329 351 325 355 296 85 112 51 352 350 299 14 154 241 226 231 320 7 319 327 324
237 228 242 253 262 275 281 297 298 301 313 319 319 309 288 314 303 116 214 243 297 273 262 281 315 294 278 296 310 296 283 119 87 141 282 289 194 276 260 198 25 250 213 229 202 241 281
235 246 254 249 258 268 281 290 289 296 308 315 304 274 292 266 326 213 249 247 314 259 257 242 263 294 292 343 304 291 255 11 92 11 289 51 297 279 262 54 80 320 303 346 200 303 307
248 248 245 246 248 260 273 280 286 295 292 294 253 259 275 231 231 204 179 261 264 213 241 212 260 203 39 290 309 280 348 84 51 301 318 127 266 306 289 42 19 219 215 201 248 327 243
248 245 234 240 250 258 268 277 288 286 281 259 257 263 291 197 279 316 322 268 251 227 268 281 300 35 231 259 215 264 305 23 160 233 292 350 260 230 237 261 311 293 284 281 261 217 249
231 225 232 239 239 244 262 275 276 266 255 227 216 240 217 232 223 240 234 309 269 276 225 216 252 240 261 273 311 244 239 271 219 198 178 211 255 257 280 297 300 287 280 273 230 251 233
230 230 232 232 237 251 259 269 275 264 237 215 213 271 332 287 285 257 209 275 244 301 125 238 243 320 321 253 267 302 323 314 270 157 205 195 249 304 289 288 276 281 279 253 255 262 255
218 221 230 241 253 253 259 263 266 269 245 205 228 236 252 288 190 258 304 277 50 19 278 292 10 337 300 302 328 307 295 281 265 278 261 220 201 237 276 288 337 299 270 268 244 228 217
214 226 234 241 236 245 253 260 268 278 241 224 207 181 127 265 197 248 19 336 320 308 288 286 312 290 282 304 307 288 266 255 256 257 247 256 274 276 281 299 231 238 288 260 261 268 287
216 223 226 220 217 227 235 227 194 139 132 221 206 184 192 259 35 294 307 295 299 287 254 250 279 279 306 324 292 293 257 226 245 281 259 213 228 265 245 214 280 279 297 49 22 294 294
213 218 214 213 211 210 213 206 188 153 132 133 140 178 181 234 167 160 326 289 287 301 312 259 317 310 315 250 257 243 252 310 267 259 42 65 275 184 260 246 252 34 103 71 296 312 352
207 204 198 196 201 195 197 200 201 190 202 241 262 242 241 236 266 271 244 285 308 303 270 299 320 330 252 255 243 243 246 233 249 241 174 144 172 212 236 263 278 328 101 107 155 301 333
189 187 189 191 189 197 202 212 223 233 241 254 277 282 270 242 257 267 260 267 274 270 259 304 325 265 273 259 269 267 277 294 330 286 313 209 204 198 206 235 288 43 2 357 345 343 348
184 188 194 197 196 206 226 238 244 251 252 260 266 266 262 242 260 277 270 265 262 261 274 241 241 279 273 275 300 344 322 335 325 285 343 299 234 278 274 280 327 1 2 3 360 351 344